Fayetteville, NC

11:29 AM EST on January 22, 2018 (GMT -0500)
Fayetteville Regional-Grannis

Weather History for KFAY - December, 2013

Change the Weather History Date:

Monday, December 9, 2013

  Actual Average Record
Temperature  
Mean Temperature 44 °F 47 °F  
Max Temperature 51 °F 58 °F 82 °F (1943)
Min Temperature 37 °F 36 °F 15 °F (1945)
Degree Days  
Heating Degree Days 21 18  
Month to date heating degree days 113 152  
Since 1 July heating degree days 629 600  
Cooling Degree Days 0 0  
Month to date cooling degree days 7 0  
Year to date cooling degree days 1945 1991  
Moisture  
Dew Point 42 °F    
Average Humidity 96    
Maximum Humidity 100    
Minimum Humidity 92    
Precipitation  
Precipitation 0.00 in 0.09 in 1.50 in (1973)
Month to date precipitation 0.44 0.96  
Year to date precipitation 39.52 42.77  
Sea Level Pressure  
Sea Level Pressure 30.16 in    
Wind  
Wind Speed 1 mph (South)    
Max Wind Speed 8 mph    
Max Gust Speed 9 mph    
Visibility 1 miles    
Events Fog    
T = Trace of Precipitation, MM = Missing Value Source: NWS Daily Summary

Daily Weather History Graph

Daily Weather History Graph

Search for Another Location

Airport or City:

Trip Planner

Search our weather history database for the weather conditions in past years. The results will help you decide how hot, cold, wet, or windy it might be!

Date:

Astronomy

Dec. 09, 2013 Rise Set
Actual Time 7:11 AM EST 5:03 PM EST
Civil Twilight 6:43 AM EST 5:31 PM EST
Nautical Twilight 6:12 AM EST 6:03 PM EST
Astronomical Twilight 5:41 AM EST 6:34 PM EST
Moon 12:17 PM EST (12/9) No Moon Set
Length of Visible Light 10h 48m
Length of Day
9h 52m
Waxing Crescent, 51% of the Moon is Illuminated
Dec 9
Waxing Crescent
Dec 17
Full
Dec 25
Last Quarter
Jan 1
New
Jan 7
First Quarter

Hourly Weather History & Observations

Time (EST) Temp. Windchill Dew Point Humidity Pressure Visibility Wind Dir Wind Speed Gust Speed Precip Events Conditions
12:53 AM 37.0 °F 34.5 °F 36.0 °F 96% 30.26 in 5.0 mi North 3.5 mph - N/A   Overcast
1:31 AM 37.4 °F - 35.6 °F 93% 30.24 in 2.0 mi Calm Calm - N/A   Overcast
1:39 AM 37.4 °F - 35.6 °F 93% 30.24 in 1.8 mi Calm Calm - N/A   Overcast
1:53 AM 37.0 °F - 36.0 °F 96% 30.23 in 1.2 mi Calm Calm - N/A   Overcast
2:11 AM 37.4 °F - 35.6 °F 93% 30.24 in 0.8 mi Calm Calm - N/A   Mist
2:53 AM 37.0 °F - 36.0 °F 96% 30.23 in 0.8 mi Calm Calm - N/A   Mist
3:53 AM 37.0 °F - 36.0 °F 96% 30.22 in 0.8 mi Calm Calm - N/A   Mist
4:32 AM 37.4 °F 33.8 °F 35.6 °F 93% 30.21 in 1.2 mi NNE 4.6 mph - N/A   Overcast
4:51 AM 37.4 °F - 37.4 °F 100% 30.21 in 0.8 mi Calm Calm - N/A   Mist
4:53 AM 37.9 °F - 37.0 °F 97% 30.20 in 0.8 mi Calm Calm - N/A   Mist
5:22 AM 37.4 °F - 37.4 °F 100% 30.20 in 1.2 mi Calm Calm - N/A   Overcast
5:49 AM 37.4 °F 34.9 °F 37.4 °F 100% 30.19 in 0.8 mi SSE 3.5 mph - N/A   Mist
5:53 AM 37.9 °F 35.5 °F 37.0 °F 97% 30.18 in 0.8 mi SSE 3.5 mph - N/A   Mist
6:14 AM 37.4 °F - 37.4 °F 100% 30.20 in 1.2 mi Calm Calm - N/A   Overcast
6:45 AM 37.4 °F - 37.4 °F 100% 30.19 in 2.0 mi Calm Calm - N/A   Overcast
6:53 AM 37.9 °F 35.5 °F 37.0 °F 97% 30.19 in 3.0 mi South 3.5 mph - N/A   Overcast
7:27 AM 39.2 °F 37.0 °F 37.4 °F 93% 30.21 in 1.8 mi NNW 3.5 mph - N/A   Overcast
7:53 AM 39.0 °F - 37.9 °F 96% 30.19 in 1.0 mi Calm Calm - N/A   Overcast
8:33 AM 39.2 °F 35.9 °F 37.4 °F 93% 30.19 in 2.5 mi SE 4.6 mph - N/A   Overcast
8:53 AM 39.9 °F 36.7 °F 37.9 °F 93% 30.17 in 1.8 mi ESE 4.6 mph - N/A   Overcast
9:26 AM 41.0 °F 38.0 °F 39.2 °F 93% 30.19 in 3.0 mi South 4.6 mph - N/A   Overcast
9:42 AM 41.0 °F 39.0 °F 39.2 °F 93% 30.18 in 2.0 mi South 3.5 mph - N/A   Overcast
9:53 AM 41.0 °F 38.0 °F 39.9 °F 96% 30.18 in 2.0 mi South 4.6 mph - N/A   Overcast
10:02 AM 41.0 °F 38.0 °F 39.2 °F 93% 30.19 in 1.2 mi SSE 4.6 mph - N/A   Overcast
10:17 AM 42.8 °F - 41.0 °F 93% 30.19 in 0.8 mi Calm Calm - N/A   Overcast
10:53 AM 43.0 °F - 42.1 °F 97% 30.17 in 0.8 mi Calm Calm - N/A   Overcast
11:16 AM 42.8 °F - 42.8 °F 100% 30.17 in 1.0 mi Calm Calm - N/A   Overcast
11:40 AM 44.6 °F 43.1 °F 42.8 °F 93% 30.16 in 0.8 mi WNW 3.5 mph - N/A   Overcast
11:53 AM 44.1 °F - 43.0 °F 96% 30.15 in 0.5 mi Calm Calm - N/A Fog Fog
12:53 PM 45.0 °F - 44.1 °F 97% 30.12 in 0.5 mi Calm Calm - N/A Fog Fog
1:53 PM 46.9 °F - 46.0 °F 97% 30.10 in 0.5 mi Calm Calm - N/A Fog Fog
2:34 PM 48.2 °F - 46.4 °F 93% 30.10 in 0.2 mi Calm Calm - N/A Fog Fog
2:53 PM 48.0 °F - 46.9 °F 96% 30.10 in 0.2 mi Calm Calm - N/A Fog Fog
3:53 PM 48.9 °F - 48.0 °F 97% 30.08 in 0.2 mi Calm Calm - N/A Fog Fog
4:53 PM 50.0 °F - 48.0 °F 93% 30.09 in 0.2 mi NW 3.5 mph - N/A Fog Fog
5:21 PM 48.2 °F - 48.2 °F 100% 30.11 in 0.5 mi Calm Calm - N/A Fog Fog
5:41 PM 48.2 °F - 48.2 °F 100% 30.11 in 0.2 mi Calm Calm - N/A Fog Fog
5:53 PM 48.9 °F - 48.0 °F 97% 30.09 in 0.2 mi Calm Calm - N/A Fog Fog
6:53 PM 50.0 °F - 48.9 °F 96% 30.11 in 0.2 mi West 3.5 mph - N/A Fog Fog
7:53 PM 50.0 °F - 48.9 °F 96% 30.11 in 0.2 mi Calm Calm - N/A Fog Fog
8:28 PM 50.0 °F - 48.2 °F 94% 30.12 in 0.5 mi SSW 3.5 mph - N/A Fog Fog
8:53 PM 50.0 °F - 48.9 °F 96% 30.10 in 0.5 mi South 3.5 mph - N/A Fog Fog
9:17 PM 50.0 °F - 48.2 °F 94% 30.11 in 0.2 mi South 3.5 mph - N/A Fog Fog
9:48 PM 50.0 °F - 50.0 °F 100% 30.10 in 0.5 mi Calm Calm - N/A Fog Fog
9:53 PM 50.0 °F - 50.0 °F 100% 30.09 in 0.5 mi Calm Calm - N/A Fog Fog
10:53 PM 51.1 °F - 50.0 °F 96% 30.07 in 0.5 mi Calm Calm - N/A Fog Fog
11:44 PM 51.8 °F - 50.0 °F 94% 30.07 in 0.2 mi Calm Calm - N/A Fog Fog
11:53 PM 51.1 °F - 50.0 °F 96% 30.06 in 0.2 mi Calm Calm - N/A Fog Fog